Flag for Canada Weather past 2 weeks in Delta, British Columbia, Canada

Now
61 °F

Broken clouds.


Feels Like: 61 °F
Forecast: 54 / 65 °F
Wind: 10 mph from East

Location: Vancouver International Air-Port

Current Time: Aug 30, 2014 at 9:31:19 AM

Latest Report: Aug 30, 2014 at 9:00 AM


Visibility: 20 mi

Pressure: 29.89 "Hg

Humidity: 83%

Dew point: 55 °F

Location of DeltaLocation

Historic Weather in Delta — Graph

°F

Delta temperature yesterday

Maximum temperature yesterday: 66 °F (at 12:00 PM)
Minimum temperature yesterday: 59 °F (at 6:00 AM)
Average temperature yesterday: 63 °F

Past Weeks' High & Low Weather Summary

 TemperatureHumidityPressure
High77 °F (Aug 27, 5:00 PM)100% (Aug 18, 6:00 AM)30.15 "Hg (Aug 18, 6:00 AM)
Low55 °F (Aug 23, 6:00 AM)57% (Aug 21, 6:00 PM)29.75 "Hg (Aug 19, 8:00 PM)
Average66 °F80%29.99 "Hg
* Reported Aug 15 8:00 AM — Aug 30 8:00 AM, Delta, Weather by CustomWeather, © 2014

Note: Actual official high and low records may vary slightly from our data, if they occured in-between our weather recording intervals... More about our weather records

Advertising

Delta weather history for previous 24 hours

 ConditionsComfort  
Time TempWeatherWind HumidityBarometerVisibility
8:00 AM
Aug 30
59 °FBroken clouds.9 mph88%29.89 "Hg20 mi
7:00 AM57 °FPartly cloudy.8 mph88%29.89 "Hg20 mi
6:00 AM57 °FPassing clouds.9 mph88%29.89 "Hg20 mi
5:00 AM59 °FPassing clouds.9 mph88%29.90 "Hg15 mi
4:00 AM57 °FPartly cloudy.6 mph88%29.90 "Hg15 mi
3:00 AM59 °FPassing clouds.8 mph82%29.91 "Hg15 mi
2:00 AM59 °FMostly cloudy.7 mph88%29.92 "Hg20 mi
1:00 AM57 °FOvercast.8 mph88%29.92 "Hg15 mi
12:00 AM59 °FPartly cloudy.7 mph88%29.92 "Hg20 mi
11:00 PM
Aug 29
61 °FPassing clouds.8 mph77%29.93 "Hg15 mi
10:00 PM63 °FPassing clouds.9 mph77%29.93 "Hg15 mi
9:00 PM63 °FBroken clouds.8 mph77%29.94 "Hg15 mi
8:00 PM63 °FOvercast.9 mph77%29.93 "Hg15 mi
7:00 PM63 °FOvercast.10 mph77%29.94 "Hg12 mi
6:00 PM64 °FMostly cloudy.12 mph68%29.94 "Hg15 mi
5:00 PM64 °FMostly cloudy.13 mph68%29.95 "Hg15 mi
4:00 PM64 °FCloudy.10 mph64%29.96 "Hg15 mi
3:00 PM64 °FLight rain. Mostly cloudy.10 mph68%29.96 "Hg15 mi
2:00 PM66 °FLight rain. Mostly cloudy.14 mph64%29.96 "Hg30 mi
12:00 PM66 °FCloudy.8 mph64%29.96 "Hg30 mi
11:00 AM64 °FCloudy.9 mph64%29.95 "Hg30 mi
10:00 AM63 °FMostly cloudy.10 mph68%29.94 "Hg30 mi
9:00 AM63 °FMostly cloudy.9 mph68%29.94 "Hg30 mi
Weather by CustomWeather, © 2014

See weather overviewHow to use our weather pages